Weather in Taskesken

Kazakhstan     47°13′23″N   80°47′22″E
temp.,
°C
wind,
m/s
gust,
m/s
humid.,
%
clouds,
%
prec.,
mm/h
press.,
hPa
HPBL,
m
19 april, mon
mon1900:00+12ese335877 0.0 101544
03:00+12se3460100 0.0 101578
06:00+10se3368100 0.1 101637
09:00+14s3446100 0.0 1016498
12:00+18wsw593294 0.0 10142310
15:00+19wsw8112835 0.0 10122775
18:00+16wnw793882 0.0 10112266
21:00+12nnw4658100 0.1 1012139
20 april, tue
tue2000:00+10ene2371100 0.4 1013149
03:00+9e0180100 0.1 101264
06:00+8ne138390 0.3 1012236
09:00+11sse2372100 0.3 1011531
12:00+12sw3460100 0.4 1009921
15:00+10n5358100 0.1 1009293
18:00+5ne4557100 0.1 1011201
21:00+3ne6760100 0.1 1013240
21 april, wed
wed2100:00+1ne7960100 0.1 1014213
03:00−2ne71158100 0.0 1014223
06:00−1ne685099 0.0 1014199
09:00+3ne4442100 0.0 1014376
12:00+6nne7638100 0.0 1013713
15:00+3nne111144100 0.1 1014494
18:00+2nne121439100 0.1 1018488
21:000n10164014 0.0 1023683
22 april, thu
thu2200:00−1n713419 0.0 1026506
03:00−2nnw48473 0.0 1028193
06:00−3n49605 0.0 1030267
09:00+2n77462 0.0 1030982
12:00+4n883796 0.0 10301417
15:00+5n88359 0.0 10311773
18:00+3n88399 0.0 10331747
21:000n610640 0.0 1035519
23 april, fri
fri2300:00−2nne612630 0.0 1035434
03:00−2nne812540 0.0 1035411
06:00−3nne712560 0.0 1036454
09:00+1n88375 0.0 10361461
12:00+3n7634100 0.0 10342513
15:00+3nnw8739100 0.1 10341962
18:00+3nnw784581 0.2 10341693
21:00−1nnw49765 0.0 1035375